Location: Chipmunk Meadow
(41.1540°N, 122.8814°W)
Time: 03:23:42
(UTC+00:00)

Cosmos 1656 Rocket - Visible Passes

Search period start: 19 July 2024 00:00
Search period end: 29 July 2024 00:00
Orbit: 793 x 846 km, 71.1° (Epoch: 18 July)

Date Brightness Start Highest point End Pass type
(mag) Time Alt. Az. Time Alt. Az. Time Alt. Az.
19 Jul 4.9 06:35:42 25° E 06:35:42 25° E 06:39:11 10° NE visible
19 Jul 4.5 08:17:02 39° W 08:17:58 42° WNW 08:23:13 10° N visible
20 Jul 5.1 06:14:06 21° E 06:14:06 21° E 06:17:12 10° NE visible
20 Jul 4.2 07:55:24 46° W 07:56:12 50° WNW 08:01:36 10° NNE visible
21 Jul 5.3 05:52:26 17° E 05:52:26 17° E 05:55:07 10° ENE visible
21 Jul 3.9 07:33:44 54° W 07:34:29 60° WNW 07:39:58 10° NNE visible
21 Jul 6.3 09:18:34 10° NW 09:19:17 10° NW 09:20:00 10° NW visible
22 Jul 5.4 05:30:41 14° E 05:30:41 14° E 05:32:52 10° ENE visible
22 Jul 3.7 07:11:59 62° WSW 07:12:46 72° WNW 07:18:19 10° NNE visible
22 Jul 6.2 08:55:15 10° WNW 08:57:22 12° NW 08:59:30 10° NNW visible
23 Jul 5.5 05:08:52 12° E 05:08:52 12° E 05:10:17 10° ENE visible
23 Jul 3.5 06:50:10 64° SSW 06:51:03 85° WNW 06:56:38 10° NNE visible
23 Jul 6.1 08:32:37 10° WNW 08:35:30 14° NW 08:38:24 10° NNW visible
24 Jul 3.5 06:28:15 58° S 06:29:22 81° ESE 06:34:56 10° NNE visible
24 Jul 6.1 08:10:12 10° W 08:13:38 17° NW 08:17:06 10° N visible
25 Jul 3.5 06:06:11 46° S 06:07:41 67° ESE 06:13:12 10° NNE visible
25 Jul 5.9 07:47:54 10° W 07:51:46 19° NW 07:55:43 10° N visible
26 Jul 3.7 05:43:57 35° SSE 05:46:02 56° ESE 05:51:27 10° NNE visible
26 Jul 5.7 07:25:42 10° WSW 07:29:57 22° NW 07:34:16 10° N visible
27 Jul 3.9 05:21:27 24° SSE 05:24:23 46° ESE 05:29:40 10° NE visible
27 Jul 5.5 07:03:34 10° WSW 07:08:08 26° NW 07:12:46 10° N visible
28 Jul 4.1 04:58:34 14° SSE 05:02:44 38° ESE 05:07:50 10° NE visible
28 Jul 5.3 06:41:31 10° WSW 06:46:20 30° WNW 06:51:14 10° N visible
